TimeEDT,TemperatureF,Dew PointF,Humidity,Sea Level PressureIn,VisibilityMPH,Wind Direction,Wind SpeedMPH,Gust SpeedMPH,PrecipitationIn,Events,Conditions,WindDirDegrees,DateUTC
12:52 AM,41.0,37.0,86,30.22,10.0,Calm,Calm,-,N/A,,Clear,0,2013-05-28 04:52:00
1:52 AM,39.9,36.0,86,30.22,10.0,Calm,Calm,-,N/A,,Clear,0,2013-05-28 05:52:00
2:52 AM,39.0,35.1,86,30.23,10.0,Calm,Calm,-,N/A,,Clear,0,2013-05-28 06:52:00
3:32 AM,37.4,33.8,87,30.21,1.8,Calm,Calm,-,N/A,,Clear,0,2013-05-28 07:32:00
3:35 AM,37.4,35.6,93,30.21,0.8,Calm,Calm,-,N/A,,Clear,0,2013-05-28 07:35:00
3:44 AM,37.4,35.6,93,30.21,1.8,Calm,Calm,-,N/A,,Clear,0,2013-05-28 07:44:00
3:46 AM,37.4,35.6,93,30.21,5.0,Calm,Calm,-,N/A,,Clear,0,2013-05-28 07:46:00
3:52 AM,37.9,34.0,86,30.22,10.0,WSW,3.5,-,N/A,,Clear,240,2013-05-28 07:52:00
4:52 AM,37.0,33.1,86,30.23,10.0,Calm,Calm,-,N/A,,Clear,0,2013-05-28 08:52:00
5:52 AM,37.0,33.1,86,30.25,9.0,Calm,Calm,-,N/A,,Clear,0,2013-05-28 09:52:00
6:52 AM,42.1,37.0,82,30.25,10.0,Calm,Calm,-,N/A,,Clear,0,2013-05-28 10:52:00
7:52 AM,48.0,39.0,71,30.24,10.0,Calm,Calm,-,N/A,,Clear,0,2013-05-28 11:52:00
8:52 AM,55.0,39.0,55,30.23,10.0,Calm,Calm,-,N/A,,Clear,0,2013-05-28 12:52:00
9:52 AM,64.0,35.1,34,30.21,10.0,Variable,5.8,-,N/A,,Clear,0,2013-05-28 13:52:00
10:52 AM,66.9,36.0,32,30.21,10.0,East,6.9,-,N/A,,Clear,90,2013-05-28 14:52:00
11:52 AM,70.0,33.1,26,30.20,10.0,Calm,Calm,-,N/A,,Clear,0,2013-05-28 15:52:00
12:52 PM,71.1,35.1,27,30.18,10.0,SW,9.2,-,N/A,,Clear,230,2013-05-28 16:52:00
1:52 PM,71.1,35.1,27,30.17,10.0,SW,4.6,-,N/A,,Clear,230,2013-05-28 17:52:00
2:52 PM,70.0,37.0,30,30.16,10.0,SW,9.2,-,N/A,,Clear,230,2013-05-28 18:52:00
3:52 PM,70.0,37.9,31,30.16,10.0,WSW,8.1,-,N/A,,Clear,240,2013-05-28 19:52:00
4:52 PM,70.0,36.0,29,30.14,10.0,Calm,Calm,-,N/A,,Clear,0,2013-05-28 20:52:00
5:52 PM,70.0,36.0,29,30.14,10.0,SE,8.1,16.1,N/A,,Clear,140,2013-05-28 21:52:00
6:52 PM,66.0,44.1,45,30.14,10.0,SW,5.8,-,N/A,,Mostly Cloudy,230,2013-05-28 22:52:00
7:52 PM,63.0,43.0,48,30.14,10.0,Calm,Calm,-,N/A,,Overcast,0,2013-05-28 23:52:00
8:52 PM,61.0,43.0,52,30.13,10.0,Calm,Calm,-,N/A,,Overcast,0,2013-05-29 00:52:00
9:52 PM,62.1,45.0,53,30.14,10.0,SE,6.9,-,N/A,,Overcast,130,2013-05-29 01:52:00
10:49 PM,60.8,48.2,63,30.14,10.0,ESE,8.1,-,N/A,,Overcast,120,2013-05-29 02:49:00
10:52 PM,61.0,48.0,62,30.14,10.0,East,6.9,-,N/A,,Overcast,90,2013-05-29 02:52:00
11:10 PM,60.8,48.2,63,30.15,10.0,ESE,10.4,19.6,N/A,,Overcast,110,2013-05-29 03:10:00
11:38 PM,60.8,48.2,63,30.14,10.0,ESE,5.8,-,N/A,,Mostly Cloudy,110,2013-05-29 03:38:00
11:52 PM,60.1,48.9,67,30.13,10.0,East,8.1,-,N/A,,Overcast,100,2013-05-29 03:52:00